This is the latest recevied weather packets stored in our database for station/object KY4EF. If no packets are shown the sender has not sent any weather packets the latest 10 day(s).
| Time | Temp. | Humidity | Pressure | Rain* | Wind** | Luminosity | Snow |
|---|---|---|---|---|---|---|---|
| 1777935964 | 22.78° C | 44% | 1012.3 hPa | 0 mm | - | 49 W/m² | - |
| 1777935659 | 22.78° C | 43% | 1012.4 hPa | 0 mm | - | 49 W/m² | - |
| 1777935355 | 22.78° C | 42% | 1012.2 hPa | 0 mm | - | 50 W/m² | - |
| 1777935052 | 23.33° C | 43% | 1012.3 hPa | 0 mm | - | 53 W/m² | - |
| 1777934748 | 23.33° C | 42% | 1012.3 hPa | 0 mm | - | 62 W/m² | - |
| 1777934446 | 22.78° C | 42% | 1012.6 hPa | 0 mm | - | 65 W/m² | - |
| 1777934142 | 23.33° C | 42% | 1012.5 hPa | 0 mm | - | 66 W/m² | - |
| 1777933838 | 23.89° C | 39% | 1012.5 hPa | 0 mm | - | 69 W/m² | - |
| 1777933535 | 23.89° C | 40% | 1012.5 hPa | 0 mm | - | 73 W/m² | - |
| 1777933232 | 23.89° C | 38% | 1012.6 hPa | 0 mm | - | 75 W/m² | - |
| 1777932930 | 23.89° C | 39% | 1012.5 hPa | 0 mm | - | 78 W/m² | - |
| 1777932627 | 23.89° C | 38% | 1012.5 hPa | 0 mm | - | 79 W/m² | - |
| 1777932323 | 24.44° C | 37% | 1012.5 hPa | 0 mm | - | 80 W/m² | - |
| 1777932020 | 25° C | 37% | 1012.4 hPa | 0 mm | - | 107 W/m² | - |
| 1777931716 | 25.56° C | 36% | 1012.4 hPa | 0 mm | - | 179 W/m² | - |
| 1777931414 | 25° C | 37% | 1012.4 hPa | 0 mm | - | 177 W/m² | - |
| 1777931110 | 25.56° C | 34% | 1012.4 hPa | 0 mm | - | 189 W/m² | - |
| 1777930806 | 25.56° C | 36% | 1012.3 hPa | 0 mm | - | 132 W/m² | - |
| 1777930502 | 24.44° C | 36% | 1012.4 hPa | 0 mm | - | 266 W/m² | - |
| 1777930200 | 24.44° C | 36% | 1012.4 hPa | 0 mm | - | 246 W/m² | - |
| 1777929896 | 25° C | 34% | 1012.4 hPa | 0 mm | - | 267 W/m² | - |
| 1777929593 | 25.56° C | 35% | 1012.3 hPa | 0 mm | - | 281 W/m² | - |
| 1777929289 | 25.56° C | 34% | 1012.4 hPa | 0 mm | - | 308 W/m² | - |
| 1777928987 | 25.56° C | 32% | 1012.3 hPa | 0 mm | - | 279 W/m² | - |
| 1777928684 | 24.44° C | 35% | 1012.5 hPa | 0 mm | - | 271 W/m² | - |
* Rain latest hour (hover to see other rain measurements)
** Current wind speed in m/s (hover to see current wind gust speed)